Regional Weather Roundup
Issued by NWS Sterling, VA

Home | Current Version | Previous Version | Graphics & Text | Print | Product List | Glossary On
Versions: 1 2 3 4 5 6 7 8 9 10 11 12 13 14 15 16 17 18 19 20 21 22 23 24 25 26 27
000
ASUS41 KLWX 231611
RWRLWX

REGIONAL WEATHER ROUNDUP
NATIONAL WEATHER SERVICE BALTIMORE MD/WASHINGTON DC
1200 PM EDT TUE AUG 23 2016

Note: "FAIR" indicates few or no clouds below 12,000 feet
with no significant weather and/or obstructions to visibility.
 TC=TEMPERATURE CELSIUS

 * =Non NWS site. Station does not report precipitation (e.g. rain,
    snow, etc.), thunder, or fog.

DCZ001-MDZ009-015-VAZ040>042-051-053>054-231700-
WASHINGTON METRO

CITY           SKY/WX    TMP DP  RH WIND       PRES   REMARKS
WASHINGTON NAT MOSUNNY   80  56  43 CALM      30.34F
DULLES         MOSUNNY   80  56  43 S7        30.34F
ANDREWS AFB    SUNNY     78  57  49 VRB2      30.34F
FT BELVOIR     SUNNY     79  58  47 VRB6      30.34F
QUANTICO       MOSUNNY   78  58  49 S3        30.35F
COLLEGE PARK*  SUNNY     77  55  47 SE3       30.33F
LEESBURG*      SUNNY     81  63  54 S3        30.35F
GAITHERSBURG*  SUNNY     77  54  44 CALM      30.38F

$$

MDZ006>007-011-014-231700-
BALTIMORE METRO

CITY           SKY/WX    TMP DP  RH WIND       PRES   REMARKS
BWI AIRPORT    MOSUNNY   77  55  46 CALM      30.34F
MD SCIENCE CTR   N/A     77  53  43 MISG      30.35F
MARTIN STATE   SUNNY     77  57  50 E7        30.36S
ANNAPOLIS      SUNNY     77  55  46 SE7       30.34F
FORT MEADE*    SUNNY     77  55  47 S3        30.36F

$$

MDZ012-015-019>023-231700-
MARYLAND EASTERN SHORE

CITY           SKY/WX    TMP DP  RH WIND       PRES   REMARKS
OCEAN CITY     SUNNY     78  56  46 NE10      30.34S
SALISBURY      SUNNY     78  55  44 MISG      30.33F
BAY BRIDGE AP* SUNNY     81  55  41 SE6       30.34F
CAMBRIDGE*     SUNNY     77  54  44 NE6       30.34F
EASTON*        SUNNY     79  59  50 VRB5      30.38F

$$

MDZ017>025-231700-
SOUTHERN MARYLAND

CITY           SKY/WX    TMP DP  RH WIND       PRES   REMARKS
PATUXENT RIVER MOSUNNY   79  54  41 SE9       30.34F
ST INIGOES     SUNNY     79  54  41 NE8       30.34S
LEONARDTOWN*   SUNNY     77  50  38 E5        30.36F

$$

MDZ003>005-231700-
NORTH CENTRAL MARYLAND

CITY           SKY/WX    TMP DP  RH WIND       PRES   REMARKS
FREDERICK*     SUNNY     79  61  53 CALM        N/A
HAGERSTOWN APT SUNNY     77  57  50 MISG      30.35F

$$

MDZ501>502-231700-
WESTERN MARYLAND

CITY           SKY/WX    TMP DP  RH WIND       PRES   REMARKS
OAKLAND*         N/A     68  55  64 S6        30.40F
CUMBERLAND*    SUNNY     77  59  53 SE3       30.37F

$$

VAZ025>031-231700-
SHENANDOAH VALLEY

CITY           SKY/WX    TMP DP  RH WIND       PRES   REMARKS
WINCHESTER*    MOSUNNY   77  61  57 S7        30.35S
FRONT ROYAL*   FAIR      77  63  61 CALM      30.34F
LURAY*         FAIR      79  61  53 CALM      30.35F
NEW MARKET*    FAIR     N/A N/A N/A SE3       30.34F
STAUNTON*      PTSUNNY   76  62  63 SE3       30.37F
WAYNESBORO*    PTSUNNY   74  60  61 SE5       30.37F

$$

WVZ021-048>050-054>055-231700-
EASTERN WEST VIRGINIA PANHANDLE

CITY           SKY/WX    TMP DP  RH WIND       PRES   REMARKS
MARTINSBURG    SUNNY     77  61  57 VRB5      30.34F
PETERSBURG*    SUNNY     77  60  55 CALM      30.34F

$$

VAZ036>039-050-231700-
CENTRAL FOOTHILLS

CITY           SKY/WX    TMP DP  RH WIND       PRES   REMARKS
CHARLOTTESVILL MOSUNNY   80  64  58 CALM      30.35F
CULPEPER*      MOSUNNY   78  65  62 S3        30.36F
ORANGE*          N/A     79  63  57 NE6       30.36F
GORDONSVILLE*  NOT AVBL
WARRENTON*     CLOUDY    79  56  45 CALM      30.35S

$$

VAZ055>057-231700-
NORTH AND CENTRAL PIEDMONT

CITY           SKY/WX    TMP DP  RH WIND       PRES   REMARKS
FREDERICKSBRG* PTSUNNY   80  64  58 E5        30.33F
STAFFORD*      CLOUDY    79  58  48 NE3       30.39S

$$

NCZ024-NYZ072-PAZ021-071-VAZ022-071-231700-
OTHER REGIONAL OBSERVATIONS

CITY           SKY/WX    TMP DP  RH WIND       PRES   REMARKS
NEW YORK CITY  SUNNY     77  49  37 CALM      30.34F
PHILADELPHIA   MOSUNNY   78  51  38 S3        30.33F
PITTSBURGH     PTSUNNY   76  56  49 S10       30.32F
ROANOKE        PTSUNNY   76  60  57 VRB3      30.37F
RICHMOND       MOSUNNY   79  59  50 VRB6      30.32F
RALEIGH        PTSUNNY   82  60  47 CALM      30.32R

$$

ANZ530>537-231700-
MARINE OBSERVATIONS

STATION/POSITION TIME  TEMP    WIND        PRES
                       AIR SEA DIR/SP/G
                 (UTC) (F)     (DEG/KT/KT) (MB)
THOMAS PT LIGHT  1600   75 82   90/  5/  6 1028.8F
BALT KEY BRIDGE  1548   74     100/  8/  9 1027.5F
COVE POINT       1548   75     140/  4/  7 1028.1F
LEWISETTA        1548   76 81  100/  8/ 10 1027.1S
SOLOMONS ISLAND  1542   76 84  100/  6/ 10   N/A
PINEY POINT      1548          140/  7/  8   N/A

$$





USA.gov is the U.S. government's official web portal to all federal, state and local government web resources and services.